Regional Weather Roundup
Issued by NWS Little Rock, AR

Home | Current Version | Previous Version | Text Only | Print | Product List | Glossary Off
Versions: 1 2 3 4 5 6 7 8 9 10 11 12 13 14 15 16 17 18 19 20 21 22 23 24 25 26 27 28 29 30 31 32 33 34 35 36 37 38 39 40 41 42 43 44 45 46 47 48 49 50

000
ASUS44 KLZK 021505
RWRLZK

WEATHER ROUNDUP FOR ARKANSAS
NATIONAL WEATHER SERVICE LITTLE ROCK AR
900 AM CST MON MAR 02 2015

NOTE: "FAIR" INDICATES FEW OR NO CLOUDS BELOW 12,000 FEET WITH NO
SIGNIFICANT WEATHER AND/OR OBSTRUCTIONS TO VISIBILITY.

ARZ001-003-010-029-021600-
NORTHWEST ARKANSAS

CITY           SKY/WX    TMP DP  RH WIND       PRES   REMARKS
FAYETTEVILLE   CLOUDY    30  24  78 E8        30.42S WCI  22
FORT SMITH     CLOUDY    37  31  78 E10       30.45R
HARRISON       CLOUDY    28  23  81 SE10      30.44F WCI  19
BENTONVILLE    CLOUDY    30  19  64 E12G18    30.42F WCI  21
ROGERS         CLOUDY    29  21  72 E10G21    30.42R WCI  20
SILOAM SPGS    CLOUDY    30  19  64 MISG      30.42S
HIGHFILL       CLOUDY    30  21  69 E12       30.40F WCI  20
SPRINGDALE     CLOUDY    30  21  69 E12G23    30.42S WCI  21
$$

ARZ004-005-016-021600-
NORTH CENTRAL ARKANSAS

CITY           SKY/WX    TMP DP  RH WIND       PRES   REMARKS
BATESVILLE     CLOUDY    34  21  60 NE12      30.50S WCI  25
FLIPPIN        CLOUDY    30  21  69 E6        30.48S WCI  24
MTN HOME       CLOUDY    30  22  72 E9        30.47S WCI  22
$$

ARZ040-041-021600-
WEST CENTRAL ARKANSAS

CITY           SKY/WX    TMP DP  RH WIND       PRES   REMARKS
MENA           NOT AVBL
MOUNT IDA      LGT RAIN  35  32  88 VRB5      30.40R FOG     WCI  31
$$

ARZ009-017-025-026-028-021600-
NORTHEAST ARKANSAS

CITY           SKY/WX    TMP DP  RH WIND       PRES   REMARKS
JONESBORO      CLOUDY    31  25  78 NE17      30.49F WCI  19
NEWPORT        CLOUDY    33  24  70 NE16      30.51S WCI  22
WALNUT RIDGE   CLOUDY    32  21  64 NE17      30.51F WCI  21
BLYTHEVILLE    PTSUNNY   32  24  72 NE17      30.51F WCI  21
NW BLYTHEVILLE PTSUNNY   32  23  69 NE17      30.52  WCI  21
$$

ARZ022-023-033-042-044-021600-
CENTRAL ARKANSAS

CITY           SKY/WX    TMP DP  RH WIND       PRES   REMARKS
LITTLE ROCK    CLOUDY    35  26  69 NE15G23   30.49R WCI  25
N LITTLE ROCK  CLOUDY    33  29  84 NE16G24   30.49R WCI  23
JACKSONVILLE   CLOUDY    34  26  73 NE14      30.47F WCI  25
SEARCY         CLOUDY    34  26  72 NE12      30.52R WCI  25
HOT SPRINGS    LGT RAIN  35  31  85 E12       30.45R FOG     WCI  27
RUSSELLVILLE   CLOUDY    36  27  69 E7        30.46F
$$

ARZ036-021600-
EAST ARKANSAS

CITY           SKY/WX    TMP DP  RH WIND       PRES   REMARKS
WEST MEMPHIS   CLOUDY    35  28  75 NE14      30.46F WCI  26
$$

ARZ050-053-066-070-073-021600-
SOUTHWEST ARKANSAS

CITY           SKY/WX    TMP DP  RH WIND       PRES   REMARKS
ARKADELPHIA    CLOUDY    37  36  96 NE8       30.46R
TEXARKANA      LGT RAIN  38  37  97 NE8       30.40R FOG
EL DORADO      LGT RAIN  38  36  92 N9        30.41R FOG
DE QUEEN       CLOUDY    40  37  89 E9        30.40R FOG
$$

ARZ056-057-069-021600-
SOUTHEAST ARKANSAS

CITY           SKY/WX    TMP DP  RH WIND       PRES   REMARKS
PINE BLUFF     LGT RAIN  34  30  85 N16       30.46R WCI  24
STUTTGART      CLOUDY    34  27  75 NE14      30.47R WCI  24
MONTICELLO     CLOUDY    35  33  92 NE7       30.43R FOG     WCI  29

$$





USA.gov is the U.S. government's official web portal to all federal, state and local government web resources and services.